Location: *
(52.6928°S, 173.9239°W)
Time: 20:21:29
(UTC+00:00)

Daily predictions for brighter satellites

Satellite Brightness Start Highest point End
(mag) Time Altitude Azimuth Time Altitude Azimuth Time Altitude Azimuth
SL-4 R/B 1.8 12:00:37 10° W 12:04:47 75° N 12:08:43 10° ENE
Lacrosse 5 rocket 2.0 12:03:43 10° W 12:07:16 48° SSW 12:10:45 10° ESE
Cosmos 2150 Rocket 4.4 12:08:21 18° NW 12:12:09 58° WSW 12:17:19 10° SSE
Cosmos 2181 Rocket 4.0 12:09:42 23° NNW 12:13:48 83° W 12:20:07 10° S
Cosmos 1726 Rocket 3.5 12:12:01 29° N 12:14:14 90° WSW 12:18:40 10° S
FENGYUN 3A 4.0 12:13:02 16° NE 12:17:23 63° ESE 12:22:48 10° S
ATLAS 3B R/B 2.5 12:12:14 10° SW 12:18:23 64° NW 12:23:26 16° NNE
Genesis I 2.4 12:19:08 10° SW 12:22:16 85° NW 12:23:39 30° NE
USA 267 3.8 12:15:56 10° ESE 12:22:27 62° S 12:28:58 10° WSW
Cosmos 1953 Rocket 3.7 12:18:41 10° SSW 12:23:05 64° W 12:25:16 28° N
Meteor 1-25 Rocket 4.3 12:18:58 10° SSW 12:24:56 87° WNW 12:28:59 21° N
USA 229 DEB 3.5 12:20:34 10° SW 12:27:27 82° NW 12:33:34 10° NE
USA 229 3.5 12:20:39 10° SW 12:27:31 82° NW 12:33:39 10° NE
Cosmos 1933 3.9 12:25:42 25° NNE 12:27:39 47° E 12:31:30 10° SSE
Meteor 1-20 Rocket 4.2 12:23:13 10° SSW 12:28:48 68° W 12:32:13 24° N
ALOS 2 2.7 12:24:52 10° S 12:29:20 71° WSW 12:31:51 25° NNW
Cosmos 2369 Rocket 3.8 12:25:10 10° WNW 12:30:15 31° SW 12:35:22 10° SSE
Nadezhda 3 Rocket 4.2 12:26:24 22° N 12:30:43 71° E 12:37:03 10° SSE
Gbstr 26 Del rocket 4.4 12:26:12 10° W 12:31:26 37° NNW 12:37:40 10° NNE
Cosmos 1515 4.1 12:30:18 27° NW 12:31:34 41° WSW 12:34:43 10° S
Cosmos 2251 Rocket 4.0 12:27:07 10° SSW 12:32:26 60° ESE 12:37:42 10° NE
Lacrosse 4 Rocket 3.4 12:30:41 10° WSW 12:33:01 14° WNW 12:33:41 14° WNW
IDEFIX/ARIANE 42P 2.7 12:31:14 24° N 12:34:23 61° WNW 12:39:39 10° SSW
ARIANE 5 R/B 3.9 12:32:26 10° S 12:36:30 33° WSW 12:39:36 15° WNW
IRIDIUM 104 4.3 12:33:47 24° N 12:37:05 88° E 12:42:27 10° S
Cosmos 1743 3.0 12:37:56 10° S 12:41:29 55° ESE 12:43:39 21° NNE
Lacrosse 5 2.4 12:36:57 10° W 12:42:04 61° SSW 12:47:11 10° ESE
SJ 16-02 4.3 12:41:43 10° S 12:44:19 15° SE 12:46:53 10° E
Resurs 1-4 Rocket 2.1 12:41:29 20° NNE 12:45:16 80° WNW 12:50:41 10° SSW
ADEOS II 2.3 12:40:54 14° NNE 12:45:26 73° ESE 12:50:45 10° SSW
IRIDIUM 114 4.4 12:42:55 23° N 12:46:15 79° W 12:51:37 10° S
MSX 4.1 12:43:52 22° N 12:47:30 53° W 12:53:11 10° SSW
H-2A R/B 3.7 12:48:43 16° WNW 12:50:12 19° W 12:53:09 10° SW
Cosmos-2242 3.1 12:49:17 24° N 12:51:45 67° E 12:56:00 10° SSE
H-2A R/B 2.4 12:50:02 10° SSE 12:54:01 76° ENE 12:56:16 25° N
CZ-2C R/B 3.9 12:51:35 21° NNW 12:54:27 35° W 12:59:11 10° SSW
IRIDIUM 103 4.5 12:52:04 23° NNW 12:55:26 68° W 13:00:46 10° S
Cosmos 407 Rocket 3.5 12:50:14 10° SSW 12:55:35 75° WNW 12:59:45 16° NNE
H-2A R/B 4.3 12:53:56 10° ENE 12:58:00 23° ESE 13:02:01 10° S
Cosmos 1656 3.7 12:54:16 21° NNW 12:58:10 84° ENE 13:03:58 10° SSE
NPP 4.3 12:57:44 21° NNW 13:00:57 42° W 13:06:09 10° SSW
Cosmos 1238 Rocket 3.2 12:59:57 21° NNE 13:01:53 47° E 13:05:33 10° SSE
Cosmos 1934 Rocket 4.0 12:56:20 10° SSW 13:02:37 83° W 13:07:34 17° N
Cosmos 2058 Rocket 3.4 13:02:01 23° NNW 13:04:38 56° WSW 13:09:01 10° S
Cosmos 1140 Rocket 4.1 13:00:06 10° SW 13:05:03 41° WNW 13:08:05 21° NNW
ALOS 2.4 13:02:48 14° NNE 13:06:48 78° ESE 13:11:30 10° SSW
USA 59 Rocket 1.9 13:00:10 10° SW 13:09:59 59° WNW 13:17:37 10° NNE
Meteor 1-26 Rocket 4.5 13:06:26 17° N 13:10:42 62° E 13:16:08 10° SSE
Cosmos 2360 4.3 13:08:30 20° NNW 13:12:33 71° ENE 13:18:20 10° SE
Envisat 3.4 13:10:04 10° NNE 13:15:09 67° ESE 13:20:17 10° S
Cosmos 2263 Rocket 2.9 13:09:28 10° SSW 13:15:09 56° SE 13:20:48 10° NE
Cosmos 1733 4.0 13:14:32 10° S 13:17:45 40° ESE 13:20:55 10° NE
SeaSat 1 3.6 13:20:19 19° NW 13:22:29 25° WNW 13:26:34 10° SW
ATLAS CENTAUR R/B 4.4 13:23:08 10° SSW 13:24:42 13° S 13:26:16 10° SE
AQUA 3.8 13:21:04 14° NNE 13:25:14 81° WNW 13:30:05 10° SSW
USA 276 2.5 13:22:32 10° W 13:25:25 36° NNW 13:28:10 10° NE
CZ-2D R/B 2.7 13:22:55 19° NNW 13:26:31 42° W 13:31:37 10° SSW
Spot 2 3.9 13:24:44 10° SSE 13:28:52 89° W 13:31:48 19° NNW
Cosmos 1954 Rocket 4.1 13:23:36 10° SSW 13:29:01 89° ESE 13:34:22 10° NNE
Cosmos 1766 Rocket 4.3 13:29:33 10° S 13:33:52 51° ESE 13:38:08 10° NNE
Cosmos 2297 Rocket 3.0 13:28:47 10° SW 13:33:54 35° WNW 13:37:44 16° NNW
CZ-2C R/B 3.5 13:30:54 10° NE 13:35:17 42° ESE 13:39:48 10° S
ATLAS 2AS CENTAUR R/B 3.6 13:28:56 10° WNW 13:35:45 50° SSW 13:42:52 10° SE
SL-12 R/B(2) 4.2 13:27:42 10° SW 13:36:48 89° NW 13:44:27 10° NE
Cosmos 1782 4.5 13:35:32 12° WNW 13:37:59 21° WSW 13:40:56 10° SSW
Cosmos 1697 Rocket 2.8 13:36:22 17° NNW 13:40:50 73° ENE 13:46:32 10° SE
Cosmos 1400 Rocket 4.3 13:38:56 10° NNE 13:42:19 30° E 13:45:48 10° SSE
Cosmos 1441 Rocket 3.5 13:39:02 10° SSW 13:42:35 45° W 13:44:58 18° NNW
SL-4 R/B 2.4 13:39:04 10° W 13:42:49 37° NNW 13:46:20 10° NE
Cosmos 2227 Rocket 2.4 13:37:24 10° SW 13:42:58 55° WNW 13:48:31 10° N
H-2A R/B 3.7 13:40:22 17° N 13:43:18 50° W 13:47:17 10° SSW
Lacrosse 5 rocket 2.3 13:42:01 10° WSW 13:45:29 43° S 13:48:51 10° E
Cosmos 1536 3.3 13:46:24 10° S 13:50:14 58° ESE 13:54:01 10° NNE
Cosmos 1461 3.8 13:48:21 14° N 13:51:25 36° ENE 13:55:12 10° SE
CZ-2C R/B 3.3 13:45:57 10° SSE 13:51:32 56° E 13:56:57 10° N
METEOR-M 4.1 13:48:01 10° NNE 13:53:25 79° WNW 13:58:53 10° SSW
Cosmos 1980 Rocket 2.9 13:49:24 11° N 13:54:29 48° ENE 13:59:55 10° SE
Cosmos 1190 Rocket 4.3 13:49:45 10° SW 13:54:55 49° WNW 14:00:02 10° N
Blok-2BL 3.2 13:53:48 10° SW 13:57:16 57° NW 13:59:02 10° NNE
Cosmos 2219 3.2 13:54:48 10° SSW 14:00:38 77° WNW 14:06:25 10° NNE
Okean 1 3.7 13:58:31 10° N 14:02:10 57° E 14:05:55 10° SSE
SME Rocket 3.4 13:59:09 12° N 14:02:33 41° WNW 14:06:13 10° SSW
Okean 3 Rocket 4.4 13:59:53 10° S 14:04:26 54° ESE 14:08:54 10° NNE
Cosmos 1812 Rocket 4.1 14:01:02 14° NNW 14:04:40 50° WSW 14:09:07 10° S
Cosmos 2221 2.5 14:01:27 13° NNW 14:05:09 76° WSW 14:09:31 10° S
USA 267 3.5 13:58:36 10° ENE 14:05:13 79° SSE 14:11:52 10° WSW
Tiangong 0.1 14:05:28 12° N 14:05:28 12° N 14:06:31 10° NNE
ATLAS 3B R/B 4.1 14:04:34 10° WSW 14:07:51 15° WNW 14:10:36 11° NW
Cosmos 2173 Rocket 4.2 14:04:29 10° S 14:10:44 75° ESE 14:16:58 10° NNE
Cosmos 1371 Rocket 4.0 14:10:48 12° NNW 14:15:39 88° WSW 14:20:59 10° SSE
PAYLOAD A 4.2 14:15:45 10° NNE 14:21:06 87° ESE 14:26:38 10° SSW
Cosmos 2082 3.7 14:16:43 10° SW 14:22:31 73° WNW 14:28:15 10° NNE
SJ 16-02 1.5 14:18:55 10° SSW 14:23:20 76° ESE 14:27:42 10° NNE
TSX-5 3.3 14:21:09 10° SW 14:24:45 63° WNW 14:27:54 10° NNE
BlueWalker 3 3.6 14:22:24 10° NNW 14:25:18 21° NE 14:28:13 10° E
ADEOS II 3.5 14:21:45 11° NW 14:25:34 21° W 14:29:35 10° SW
Lacrosse 5 2.7 14:20:32 10° WSW 14:25:37 55° S 14:30:41 10° E
Resurs 1-4 Rocket 4.0 14:22:59 10° WNW 14:25:55 15° W 14:28:54 10° SW
Cosmos 1802 Rocket 4.3 14:19:54 10° S 14:26:14 72° ESE 14:32:25 10° NNE
USA 305 3.5 14:23:34 12° NNW 14:26:38 35° NE 14:30:18 10° ESE
Cosmos 1805 3.0 14:23:55 10° SSW 14:27:35 88° W 14:31:12 10° N
Meteor 2-9 Rocket 4.2 14:22:19 10° SSW 14:28:01 85° WNW 14:33:29 10° N
Sich 1 4.1 14:25:06 10° S 14:29:16 47° ESE 14:33:23 10° NNE
Cosmos 1420 Rocket 4.5 14:27:00 10° NW 14:32:07 53° WSW 14:37:19 10° SSE
EXPRESS MD2 2.5 14:31:48 10° WNW 14:34:00 44° N 14:36:48 10° ENE
Cosmos 2016 Rocket 4.4 14:29:46 10° S 14:36:12 72° ESE 14:42:28 10° NNE
H-2A R/B 2.1 14:31:33 10° N 14:36:52 75° WNW 14:42:07 10° SSW
ARGOS 3.9 14:32:36 10° NNE 14:37:58 61° ESE 14:43:24 10° S
Cosmos 2056 Rocket 3.8 14:34:06 10° NW 14:39:22 61° WSW 14:44:46 10° SSE
IRS-1D 3.6 14:34:12 10° NNE 14:39:25 87° ESE 14:44:35 10° SSW
Cosmos 968 Rocket 3.5 14:35:31 10° SSW 14:40:45 83° WNW 14:45:57 10° NNE
ATLAS 5 CENTAUR R/B 1.5 14:39:15 10° WSW 14:41:13 31° NW 14:43:47 10° NNE
SL-16 R/B 3.9 14:36:59 10° NNE 14:41:48 29° ENE 14:46:40 10° SE
Cosmos 1727 Rocket 4.2 14:36:39 10° NNW 14:42:58 69° WSW 14:49:24 10° S
Meteor 1-19 Rocket 4.3 14:37:57 10° N 14:43:23 78° E 14:48:56 10° SSE
ALOS 4.0 14:41:30 10° NW 14:44:28 17° W 14:47:27 10° SW
Cosmos 1975 3.3 14:41:44 10° S 14:45:35 62° ESE 14:49:25 10° NNE
SAR-Lupe-1 4.4 14:43:05 10° NNE 14:46:40 71° ESE 14:50:17 10° S
SAR-Lupe-4 3.8 14:43:47 10° NNE 14:47:24 79° ESE 14:51:04 10° SSW
Meteor 1-11 Rocket 4.0 14:42:25 10° SSW 14:48:23 61° W 14:54:15 10° N
NOSS 3-4 (A) 4.4 14:40:53 10° SW 14:48:33 65° SE 14:55:01 10° ENE
NOSS 3-4 (C) 4.4 14:41:03 10° SW 14:48:42 65° SE 14:55:10 10° ENE
Cosmos 1346 Rocket 2.7 14:45:15 10° SSW 14:49:02 62° W 14:52:47 10° N
Cosmos 1850 Rocket 4.1 14:44:46 10° SSW 14:50:04 65° WNW 14:55:16 10° N
Cosmos 2369 3.9 14:47:25 10° NNW 14:53:10 83° ENE 14:58:58 10° SSE
